Lamar, CO

7:47 PM MST on November 14, 2019 (GMT -0700)
Lamar Municipal

Weather History for KLAA - September, 2019

Change the Weather History Date:

Friday, September 20, 2019

  Actual Average Record
Temperature  
Mean Temperature 79 °F 65 °F  
Max Temperature 97 °F 81 °F 101 °F (1926)
Min Temperature 60 °F 48 °F 30 °F (1942)
Degree Days  
Heating Degree Days 0 3  
Month to date heating degree days 1 31  
Since 1 July heating degree days 1 36  
Cooling Degree Days 14 3  
Month to date cooling degree days 237 101  
Year to date cooling degree days 1339 1090  
Growing Degree Days 28 (Base 50)    
Moisture  
Dew Point 53 °F    
Average Humidity 51    
Maximum Humidity 90    
Minimum Humidity 11    
Precipitation  
Precipitation T in 0.04 in 0.70 in (1965)
Month to date precipitation 0.51 0.93  
Year to date precipitation 7.74 13.30  
Sea Level Pressure  
Sea Level Pressure 29.73 in    
Wind  
Wind Speed 15 mph (SSE)    
Max Wind Speed 30 mph    
Max Gust Speed 41 mph    
Visibility 10 miles    
Events Rain , Thunderstorm    
T = Trace of Precipitation, MM = Missing Value Source: NWS Daily Summary

Daily Weather History Graph

Daily Weather History Graph

Search for Another Location

Airport or City:

Astronomy

Sep. 20, 2019 Rise Set
Actual Time 6:36 AM MDT 6:51 PM MDT
Civil Twilight 6:10 AM MDT 7:17 PM MDT
Nautical Twilight 5:39 AM MDT 7:48 PM MDT
Astronomical Twilight 5:08 AM MDT 8:19 PM MDT
Moon 10:48 PM MDT (9/20) 12:38 PM MDT (9/20)
Length of Visible Light 13h 07m
Length of Day
12h 14m
Waning Gibbous, 64% of the Moon is Illuminated
Sep 20
Waning Gibbous
Sep 21
Last Quarter
Sep 28
New
Oct 5
First Quarter
Oct 13
Full

Hourly Weather History & Observations

Time (MDT) Temp. Heat Index Dew Point Humidity Pressure Visibility Wind Dir Wind Speed Gust Speed Precip Events Conditions
12:29 AM 66.9 °F - 55.9 °F 68% 29.95 in 10.0 mi ESE 6.9 mph - 0.00 in   Mostly Cloudy
12:41 AM 64.9 °F - 57.0 °F 75% 29.95 in 10.0 mi ESE 8.1 mph - 0.00 in Rain , Thunderstorm Light Rain
12:53 AM 64.0 °F - 57.0 °F 78% 29.78 in 10.0 mi East 5.8 mph - 0.00 in Rain , Thunderstorm Light Rain
1:05 AM 64.9 °F - 57.0 °F 75% 29.95 in 10.0 mi East 5.8 mph - 0.01 in Rain , Thunderstorm Light Thunderstorms and Rain
1:20 AM 63.0 °F - 57.9 °F 84% 29.95 in 10.0 mi East 5.8 mph - 0.01 in Thunderstorm Overcast
1:36 AM 64.0 °F - 57.0 °F 78% 29.94 in 10.0 mi ESE 6.9 mph - 0.01 in   Mostly Cloudy
1:53 AM 64.0 °F - 57.0 °F 78% 29.80 in 10.0 mi ESE 8.1 mph - 0.01 in Thunderstorm Partly Cloudy
2:10 AM 63.0 °F - 57.0 °F 81% 29.94 in 10.0 mi East 6.9 mph - N/A   Scattered Clouds
2:53 AM 62.1 °F - 55.9 °F 80% 29.78 in 10.0 mi SE 6.9 mph - N/A   Clear
3:53 AM 61.0 °F - 57.0 °F 87% 29.78 in 10.0 mi ESE 8.1 mph - N/A   Partly Cloudy
4:53 AM 64.9 °F - 57.0 °F 75% 29.76 in 10.0 mi SSE 9.2 mph - 0.00 in Rain Light Rain
5:53 AM 62.1 °F - 55.9 °F 80% 29.77 in 10.0 mi East 9.2 mph - 0.00 in   Clear
6:53 AM 63.0 °F - 55.0 °F 75% 29.77 in 10.0 mi Calm Calm - N/A   Mostly Cloudy
7:53 AM 70.0 °F - 54.0 °F 57% 29.77 in 10.0 mi SW 3.5 mph - N/A   Clear
8:53 AM 77.0 °F - 55.0 °F 47% 29.75 in 10.0 mi SSW 11.5 mph 19.6 mph N/A   Clear
9:53 AM 80.1 °F 80.0 °F 54.0 °F 40% 29.74 in 10.0 mi SSW 13.8 mph 20.7 mph N/A   Clear
10:53 AM 84.0 °F - 52.0 °F 33% 29.70 in 10.0 mi SW 8.1 mph 20.7 mph N/A   Clear
11:53 AM 90.0 °F - 48.9 °F 24% 29.66 in 10.0 mi North - - N/A   Clear
12:53 PM 93.0 °F - 41.0 °F 16% 29.63 in 10.0 mi SW 13.8 mph 27.6 mph N/A   Clear
1:53 PM 95.0 °F - 33.1 °F 11% 29.60 in 10.0 mi SW 21.9 mph 35.7 mph N/A   Clear
2:53 PM 93.9 °F - 34.0 °F 12% 29.58 in 10.0 mi SSW 19.6 mph 27.6 mph N/A   Partly Cloudy
3:53 PM 91.0 °F - 37.9 °F 15% 29.57 in 10.0 mi SW 12.7 mph 27.6 mph N/A   Clear
4:53 PM 93.0 °F - 42.1 °F 17% 29.56 in 10.0 mi SSW 11.5 mph - N/A   Partly Cloudy
5:53 PM 88.0 °F - 51.1 °F 28% 29.57 in 10.0 mi South 28.8 mph 41.4 mph N/A   Clear
6:53 PM 82.9 °F 82.1 °F 55.9 °F 39% 29.59 in 10.0 mi South 25.3 mph 35.7 mph N/A   Clear
7:53 PM 80.1 °F 80.4 °F 57.0 °F 45% 29.59 in 10.0 mi South 24.2 mph 36.8 mph N/A   Clear
8:53 PM 77.0 °F - 53.1 °F 43% 29.60 in 10.0 mi South 23.0 mph 34.5 mph N/A   Clear
9:53 PM 75.0 °F - 57.0 °F 53% 29.62 in 10.0 mi SSW 24.2 mph 33.4 mph N/A   Clear
10:53 PM 75.0 °F - 55.9 °F 51% 29.64 in 10.0 mi SSW 21.9 mph 33.4 mph N/A   Clear
11:53 PM 73.0 °F - 57.0 °F 57% 29.63 in 10.0 mi SSW 20.7 mph 28.8 mph N/A   Clear